SITE: BDASw,YEAR: 2008,,,,,,
2008date,time,pzhd (cm),gw temp (C),DWT (cm),WT elev (m),,
01/01/08,0:00,264.2,13.0,94.8,1372.316,,Depth to water table:
01/01/08,0:30,263.6,13.0,95.4,1372.310,,DWT = SCL - CH - h (all values in cm)
01/01/08,1:00,263.8,13.0,95.2,1372.312,,where
01/01/08,1:30,264.3,13.0,94.7,1372.317,,SCL = sensor cable length = 490.5 cm
01/01/08,2:00,263.7,13.0,95.3,1372.311,,CH = casing height of well = 131.5 cm
01/01/08,2:30,263.5,13.0,95.5,1372.309,,h = height of water above sensor (from pzhd column)
01/01/08,3:00,263.5,13.0,95.5,1372.309,,
01/01/08,3:30,263.6,13.0,95.4,1372.310,,WT elevation:
01/01/08,4:00,263.1,13.0,95.9,1372.305,,Sensor elev = 1369.674 m asl
01/01/08,4:30,263.2,13.0,95.8,1372.306,,WT elev = sensor elev + h (from pzhd column)
01/01/08,5:00,263.8,13.0,95.2,1372.312,,
01/01/08,5:30,263.5,13.0,95.5,1372.309,,
01/01/08,6:00,263.0,13.0,96.0,1372.304,,
01/01/08,6:30,263.8,13.0,95.2,1372.312,,Dates with missing data (# 0.5 hr data points):
01/01/08,7:00,263.7,13.0,95.3,1372.311,,"3/11 (2), 3/25 (2)."
01/01/08,7:30,263.5,13.0,95.5,1372.309,,
01/01/08,8:00,263.5,13.0,95.5,1372.309,,
01/01/08,8:30,263.8,13.0,95.2,1372.312,,Dates w/missing T data:
01/01/08,9:00,263.7,13.0,95.3,1372.311,,"Mar 9, 11, 25, May 12, 18, Jun 8, Nov 13, Dec 12."
01/01/08,9:30,263.4,13.0,95.6,1372.308,,
01/01/08,10:00,263.3,13.0,95.7,1372.307,,
01/01/08,10:30,262.7,13.0,96.3,1372.301,,
01/01/08,11:00,263.2,13.0,95.8,1372.306,,
01/01/08,11:30,263.6,13.0,95.4,1372.310,,
01/01/08,12:00,264.6,13.0,94.4,1372.320,,
01/01/08,12:30,264.4,13.0,94.6,1372.318,,
01/01/08,13:00,265.1,13.0,93.9,1372.325,,
01/01/08,13:30,266.0,13.0,93.0,1372.334,,
01/01/08,14:00,265.8,13.0,93.2,1372.332,,
01/01/08,14:30,266.4,13.0,92.6,1372.338,,
01/01/08,15:00,266.4,13.0,92.6,1372.338,,
01/01/08,15:30,266.1,13.0,92.9,1372.335,,
01/01/08,16:00,266.4,13.0,92.6,1372.338,,
01/01/08,16:30,266.2,13.0,92.8,1372.336,,
01/01/08,17:00,266.3,13.0,92.7,1372.337,,
01/01/08,17:30,266.4,13.1,92.6,1372.338,,
01/01/08,18:00,266.1,13.0,92.9,1372.335,,
01/01/08,18:30,266.6,13.0,92.4,1372.340,,
01/01/08,19:00,265.4,13.0,93.6,1372.328,,
01/01/08,19:30,265.6,13.0,93.4,1372.330,,
01/01/08,20:00,265.4,13.1,93.6,1372.328,,
01/01/08,20:30,265.2,13.0,93.8,1372.326,,
01/01/08,21:00,265.1,13.0,93.9,1372.325,,
01/01/08,21:30,264.3,13.1,94.7,1372.317,,
01/01/08,22:00,265.6,13.1,93.4,1372.330,,
01/01/08,22:30,265.3,13.0,93.7,1372.327,,
01/01/08,23:00,265.3,13.0,93.7,1372.327,,
01/01/08,23:30,265.7,13.0,93.3,1372.331,,
01/02/08,0:00,264.9,13.0,94.1,1372.323,,
01/02/08,0:30,264.6,13.0,94.4,1372.320,,
01/02/08,1:00,264.6,13.0,94.4,1372.320,,
01/02/08,1:30,264.6,13.0,94.4,1372.320,,
01/02/08,2:00,264.8,13.0,94.2,1372.322,,
01/02/08,2:30,264.3,13.0,94.7,1372.317,,
01/02/08,3:00,264.5,13.0,94.5,1372.319,,
01/02/08,3:30,264.3,13.0,94.7,1372.317,,
01/02/08,4:00,264.3,13.0,94.7,1372.317,,
01/02/08,4:30,265.1,13.0,93.9,1372.325,,
01/02/08,5:00,265.6,13.0,93.4,1372.330,,
01/02/08,5:30,264.4,13.0,94.6,1372.318,,
01/02/08,6:00,266.0,13.0,93.0,1372.334,,
01/02/08,6:30,265.8,13.0,93.2,1372.332,,
01/02/08,7:00,265.0,13.0,94.0,1372.324,,
01/02/08,7:30,265.2,13.0,93.8,1372.326,,
01/02/08,8:00,265.7,13.0,93.3,1372.331,,
01/02/08,8:30,265.4,13.0,93.6,1372.328,,
01/02/08,9:00,266.1,13.0,92.9,1372.335,,
01/02/08,9:30,265.6,13.0,93.4,1372.330,,
01/02/08,10:00,266.1,13.0,92.9,1372.335,,
01/02/08,10:30,266.0,13.0,93.0,1372.334,,
01/02/08,11:00,265.7,13.0,93.3,1372.331,,
01/02/08,11:30,266.2,13.0,92.8,1372.336,,
01/02/08,12:00,267.0,13.0,92.0,1372.344,,
01/02/08,12:30,267.0,13.0,92.0,1372.344,,
01/02/08,13:00,267.4,13.0,91.6,1372.348,,
01/02/08,13:30,267.1,13.0,91.9,1372.345,,
01/02/08,14:00,268.1,13.0,90.9,1372.355,,
01/02/08,14:30,268.1,13.0,90.9,1372.355,,
01/02/08,15:00,268.2,13.0,90.8,1372.356,,
01/02/08,15:30,268.8,13.0,90.2,1372.362,,
01/02/08,16:00,268.8,13.0,90.2,1372.362,,
01/02/08,16:30,269.0,13.0,90.0,1372.364,,
01/02/08,17:00,269.0,13.0,90.0,1372.364,,
01/02/08,17:30,268.8,13.0,90.2,1372.362,,
01/02/08,18:00,269.1,13.0,89.9,1372.365,,
01/02/08,18:30,268.3,13.0,90.7,1372.357,,
01/02/08,19:00,268.0,13.0,91.0,1372.354,,
01/02/08,19:30,268.2,13.1,90.8,1372.356,,
01/02/08,20:00,267.5,13.0,91.5,1372.349,,
01/02/08,20:30,267.8,13.0,91.2,1372.352,,
01/02/08,21:00,267.9,13.0,91.1,1372.353,,
01/02/08,21:30,268.4,13.0,90.6,1372.358,,
01/02/08,22:00,267.9,13.0,91.1,1372.353,,
01/02/08,22:30,267.4,13.0,91.6,1372.348,,
01/02/08,23:00,267.9,13.0,91.1,1372.353,,
01/02/08,23:30,267.7,13.0,91.3,1372.351,,
01/03/08,0:00,267.7,13.0,91.3,1372.351,,
01/03/08,0:30,267.4,13.0,91.6,1372.348,,
01/03/08,1:00,268.1,13.0,90.9,1372.355,,
01/03/08,1:30,267.7,13.0,91.3,1372.351,,
01/03/08,2:00,268.0,13.0,91.0,1372.354,,
01/03/08,2:30,267.5,13.0,91.5,1372.349,,
01/03/08,3:00,267.3,13.0,91.7,1372.347,,
01/03/08,3:30,268.0,13.0,91.0,1372.354,,
01/03/08,4:00,268.1,13.0,90.9,1372.355,,
01/03/08,4:30,267.9,13.0,91.1,1372.353,,
01/03/08,5:00,268.0,13.0,91.0,1372.354,,
01/03/08,5:30,267.7,13.0,91.3,1372.351,,
01/03/08,6:00,267.6,13.0,91.4,1372.350,,
01/03/08,6:30,268.1,13.0,90.9,1372.355,,
01/03/08,7:00,267.7,13.0,91.3,1372.351,,
01/03/08,7:30,268.0,13.0,91.0,1372.354,,
01/03/08,8:00,268.3,13.0,90.7,1372.357,,
01/03/08,8:30,267.7,13.0,91.3,1372.351,,
01/03/08,9:00,266.8,13.0,92.2,1372.342,,
01/03/08,9:30,267.1,13.0,91.9,1372.345,,
01/03/08,10:00,267.4,13.0,91.6,1372.348,,
01/03/08,10:30,267.4,13.0,91.6,1372.348,,
01/03/08,11:00,267.9,13.0,91.1,1372.353,,
01/03/08,11:30,268.8,13.0,90.2,1372.362,,
01/03/08,12:00,268.8,13.0,90.2,1372.362,,
01/03/08,12:30,268.8,13.0,90.2,1372.362,,
01/03/08,13:00,269.5,13.0,89.5,1372.369,,
01/03/08,13:30,269.6,13.0,89.4,1372.370,,
01/03/08,14:00,269.5,13.0,89.5,1372.369,,
01/03/08,14:30,269.2,13.0,89.8,1372.366,,
01/03/08,15:00,270.4,13.0,88.6,1372.378,,
01/03/08,15:30,269.8,13.0,89.2,1372.372,,
01/03/08,16:00,270.4,13.0,88.6,1372.378,,
01/03/08,16:30,270.2,13.0,88.8,1372.376,,
01/03/08,17:00,269.7,13.0,89.3,1372.371,,
01/03/08,17:30,270.1,13.0,88.9,1372.375,,
01/03/08,18:00,269.3,13.0,89.7,1372.367,,
01/03/08,18:30,269.8,13.0,89.2,1372.372,,
01/03/08,19:00,268.9,13.0,90.1,1372.363,,
01/03/08,19:30,269.1,13.0,89.9,1372.365,,
01/03/08,20:00,267.7,13.0,91.3,1372.351,,
01/03/08,20:30,268.3,13.0,90.7,1372.357,,
01/03/08,21:00,268.4,13.0,90.6,1372.358,,
01/03/08,21:30,268.8,13.0,90.2,1372.362,,
01/03/08,22:00,268.4,13.0,90.6,1372.358,,
01/03/08,22:30,268.6,13.0,90.4,1372.360,,
01/03/08,23:00,269.0,13.0,90.0,1372.364,,
01/03/08,23:30,269.1,13.0,89.9,1372.365,,
01/04/08,0:00,269.0,13.0,90.0,1372.364,,
01/04/08,0:30,269.3,13.0,89.7,1372.367,,
01/04/08,1:00,269.2,13.0,89.8,1372.366,,
01/04/08,1:30,269.5,13.0,89.5,1372.369,,
01/04/08,2:00,269.8,13.0,89.2,1372.372,,
01/04/08,2:30,269.9,13.0,89.1,1372.373,,
01/04/08,3:00,269.5,13.0,89.5,1372.369,,
01/04/08,3:30,269.4,13.0,89.6,1372.368,,
01/04/08,4:00,269.2,13.0,89.8,1372.366,,
01/04/08,4:30,269.7,13.0,89.3,1372.371,,
01/04/08,5:00,270.0,13.0,89.0,1372.374,,
01/04/08,5:30,269.4,13.0,89.6,1372.368,,
01/04/08,6:00,269.5,13.0,89.5,1372.369,,
01/04/08,6:30,269.6,13.0,89.4,1372.370,,
01/04/08,7:00,269.0,13.0,90.0,1372.364,,
01/04/08,7:30,269.9,13.0,89.1,1372.373,,
01/04/08,8:00,269.3,13.0,89.7,1372.367,,
01/04/08,8:30,268.7,13.0,90.3,1372.361,,
01/04/08,9:00,268.3,13.0,90.7,1372.357,,
01/04/08,9:30,268.3,13.0,90.7,1372.357,,
01/04/08,10:00,268.4,13.0,90.6,1372.358,,
01/04/08,10:30,267.8,13.0,91.2,1372.352,,
01/04/08,11:00,268.1,13.0,90.9,1372.355,,
01/04/08,11:30,268.5,13.0,90.5,1372.359,,
01/04/08,12:00,268.7,13.0,90.3,1372.361,,
01/04/08,12:30,269.1,13.0,89.9,1372.365,,
01/04/08,13:00,269.1,13.0,89.9,1372.365,,
01/04/08,13:30,269.3,13.0,89.7,1372.367,,
01/04/08,14:00,269.7,13.0,89.3,1372.371,,
01/04/08,14:30,270.0,13.0,89.0,1372.374,,
01/04/08,15:00,270.3,13.0,88.7,1372.377,,
01/04/08,15:30,270.1,13.0,88.9,1372.375,,
01/04/08,16:00,270.2,13.0,88.8,1372.376,,
01/04/08,16:30,270.2,13.0,88.8,1372.376,,
01/04/08,17:00,270.2,13.0,88.8,1372.376,,
01/04/08,17:30,269.8,13.0,89.2,1372.372,,
01/04/08,18:00,269.8,13.0,89.2,1372.372,,
01/04/08,18:30,269.8,13.0,89.2,1372.372,,
01/04/08,19:00,269.5,13.0,89.5,1372.369,,
01/04/08,19:30,268.6,13.0,90.4,1372.360,,
01/04/08,20:00,268.8,13.0,90.2,1372.362,,
01/04/08,20:30,268.7,13.0,90.3,1372.361,,
01/04/08,21:00,268.5,13.0,90.5,1372.359,,
01/04/08,21:30,268.9,13.0,90.1,1372.363,,
01/04/08,22:00,269.4,13.0,89.6,1372.368,,
01/04/08,22:30,269.1,13.0,89.9,1372.365,,
01/04/08,23:00,269.1,13.0,89.9,1372.365,,
01/04/08,23:30,269.0,13.0,90.0,1372.364,,
01/05/08,0:00,269.2,13.0,89.8,1372.366,,
01/05/08,0:30,268.8,13.0,90.2,1372.362,,
01/05/08,1:00,269.1,13.0,89.9,1372.365,,
01/05/08,1:30,269.8,13.0,89.2,1372.372,,
01/05/08,2:00,269.1,13.0,89.9,1372.365,,
01/05/08,2:30,269.4,13.0,89.6,1372.368,,
01/05/08,3:00,269.8,13.0,89.2,1372.372,,
01/05/08,3:30,270.2,13.0,88.8,1372.376,,
01/05/08,4:00,270.7,13.0,88.3,1372.381,,
01/05/08,4:30,269.9,13.0,89.1,1372.373,,
01/05/08,5:00,270.1,13.0,88.9,1372.375,,
01/05/08,5:30,270.5,13.0,88.5,1372.379,,
01/05/08,6:00,270.6,13.0,88.4,1372.380,,
01/05/08,6:30,270.2,13.0,88.8,1372.376,,
01/05/08,7:00,269.9,13.0,89.1,1372.373,,
01/05/08,7:30,270.0,13.0,89.0,1372.374,,
01/05/08,8:00,269.4,13.0,89.6,1372.368,,
01/05/08,8:30,269.7,13.0,89.3,1372.371,,
01/05/08,9:00,269.7,13.0,89.3,1372.371,,
01/05/08,9:30,269.3,12.9,89.7,1372.367,,
01/05/08,10:00,269.6,13.0,89.4,1372.370,,
01/05/08,10:30,269.9,12.9,89.1,1372.373,,
01/05/08,11:00,268.9,13.0,90.1,1372.363,,
01/05/08,11:30,269.0,12.9,90.0,1372.364,,
01/05/08,12:00,269.6,12.9,89.4,1372.370,,
01/05/08,12:30,269.4,12.9,89.6,1372.368,,
01/05/08,13:00,270.1,13.0,88.9,1372.375,,
01/05/08,13:30,270.1,12.9,88.9,1372.375,,
01/05/08,14:00,271.0,13.0,88.0,1372.384,,
01/05/08,14:30,271.3,13.0,87.7,1372.387,,
01/05/08,15:00,271.6,13.0,87.4,1372.390,,
01/05/08,15:30,271.7,13.0,87.3,1372.391,,
01/05/08,16:00,271.8,12.9,87.2,1372.392,,
01/05/08,16:30,271.4,12.9,87.6,1372.388,,
01/05/08,17:00,272.2,12.9,86.8,1372.396,,
01/05/08,17:30,271.7,12.9,87.3,1372.391,,
01/05/08,18:00,271.4,12.9,87.6,1372.388,,
01/05/08,18:30,271.0,13.0,88.0,1372.384,,
01/05/08,19:00,271.3,13.0,87.7,1372.387,,
01/05/08,19:30,270.9,12.9,88.1,1372.383,,
01/05/08,20:00,271.2,12.9,87.8,1372.386,,
01/05/08,20:30,270.6,12.9,88.4,1372.380,,
01/05/08,21:00,270.3,12.9,88.7,1372.377,,
01/05/08,21:30,269.9,12.9,89.1,1372.373,,
01/05/08,22:00,270.9,12.9,88.1,1372.383,,
01/05/08,22:30,270.7,12.9,88.3,1372.381,,
01/05/08,23:00,270.8,12.9,88.2,1372.382,,
01/05/08,23:30,270.9,12.9,88.1,1372.383,,
01/06/08,0:00,271.1,12.9,87.9,1372.385,,
01/06/08,0:30,271.5,12.9,87.5,1372.389,,
01/06/08,1:00,271.3,12.9,87.7,1372.387,,
01/06/08,1:30,270.5,12.9,88.5,1372.379,,
01/06/08,2:00,271.1,12.9,87.9,1372.385,,
01/06/08,2:30,270.7,12.9,88.3,1372.381,,
01/06/08,3:00,271.5,12.9,87.5,1372.389,,
01/06/08,3:30,271.2,12.9,87.8,1372.386,,
01/06/08,4:00,271.3,12.9,87.7,1372.387,,
01/06/08,4:30,271.1,12.9,87.9,1372.385,,
01/06/08,5:00,270.8,12.9,88.2,1372.382,,
01/06/08,5:30,271.6,12.9,87.4,1372.390,,
01/06/08,6:00,271.2,12.9,87.8,1372.386,,
01/06/08,6:30,271.3,12.9,87.7,1372.387,,
01/06/08,7:00,271.2,12.9,87.8,1372.386,,
01/06/08,7:30,270.5,12.9,88.5,1372.379,,
01/06/08,8:00,270.5,12.9,88.5,1372.379,,
01/06/08,8:30,270.6,12.9,88.4,1372.380,,
01/06/08,9:00,270.8,12.9,88.2,1372.382,,
01/06/08,9:30,270.5,12.9,88.5,1372.379,,
01/06/08,10:00,270.7,12.9,88.3,1372.381,,
01/06/08,10:30,270.6,12.9,88.4,1372.380,,
01/06/08,11:00,270.6,12.9,88.4,1372.380,,
01/06/08,11:30,270.1,12.9,88.9,1372.375,,
01/06/08,12:00,270.2,12.9,88.8,1372.376,,
01/06/08,12:30,270.2,12.9,88.8,1372.376,,
01/06/08,13:00,270.7,12.9,88.3,1372.381,,
01/06/08,13:30,271.4,12.9,87.6,1372.388,,
01/06/08,14:00,271.3,12.9,87.7,1372.387,,
01/06/08,14:30,271.2,12.9,87.8,1372.386,,
01/06/08,15:00,271.3,12.9,87.7,1372.387,,
01/06/08,15:30,271.2,12.9,87.8,1372.386,,
01/06/08,16:00,271.4,12.9,87.6,1372.388,,
01/06/08,16:30,271.7,12.9,87.3,1372.391,,
01/06/08,17:00,271.5,12.9,87.5,1372.389,,
01/06/08,17:30,271.3,12.9,87.7,1372.387,,
01/06/08,18:00,271.0,12.9,88.0,1372.384,,
01/06/08,18:30,271.0,12.9,88.0,1372.384,,
01/06/08,19:00,270.2,12.9,88.8,1372.376,,
01/06/08,19:30,270.0,12.9,89.0,1372.374,,
01/06/08,20:00,269.7,12.8,89.3,1372.371,,
01/06/08,20:30,270.0,12.8,89.0,1372.374,,
01/06/08,21:00,270.0,12.8,89.0,1372.374,,
01/06/08,21:30,270.1,12.8,88.9,1372.375,,
01/06/08,22:00,270.1,12.8,88.9,1372.375,,
01/06/08,22:30,269.7,12.8,89.3,1372.371,,
01/06/08,23:00,270.6,12.9,88.4,1372.380,,
01/06/08,23:30,269.6,12.8,89.4,1372.370,,
01/07/08,0:00,270.1,12.9,88.9,1372.375,,
01/07/08,0:30,270.1,12.8,88.9,1372.375,,
01/07/08,1:00,270.0,12.8,89.0,1372.374,,
01/07/08,1:30,270.2,12.8,88.8,1372.376,,
01/07/08,2:00,271.1,12.9,87.9,1372.385,,
01/07/08,2:30,270.5,12.8,88.5,1372.379,,
01/07/08,3:00,271.0,12.8,88.0,1372.384,,
01/07/08,3:30,270.9,12.8,88.1,1372.383,,
01/07/08,4:00,270.7,12.9,88.3,1372.381,,
01/07/08,4:30,270.5,12.8,88.5,1372.379,,
01/07/08,5:00,270.6,12.8,88.4,1372.380,,
01/07/08,5:30,271.3,12.8,87.7,1372.387,,
01/07/08,6:00,270.9,12.8,88.1,1372.383,,
01/07/08,6:30,270.9,12.9,88.1,1372.383,,
01/07/08,7:00,271.1,12.8,87.9,1372.385,,
01/07/08,7:30,271.1,12.8,87.9,1372.385,,
01/07/08,8:00,271.1,12.8,87.9,1372.385,,
01/07/08,8:30,271.0,12.8,88.0,1372.384,,
01/07/08,9:00,271.3,12.8,87.7,1372.387,,
01/07/08,9:30,271.1,12.8,87.9,1372.385,,
01/07/08,10:00,271.2,12.8,87.8,1372.386,,
01/07/08,10:30,270.8,12.8,88.2,1372.382,,
01/07/08,11:00,270.9,12.8,88.1,1372.383,,
01/07/08,11:30,271.3,12.8,87.7,1372.387,,
01/07/08,12:00,270.6,12.8,88.4,1372.380,,
01/07/08,12:30,271.3,12.8,87.7,1372.387,,
01/07/08,13:00,271.2,12.8,87.8,1372.386,,
01/07/08,13:30,271.3,12.8,87.7,1372.387,,
01/07/08,14:00,271.7,12.8,87.3,1372.391,,
01/07/08,14:30,271.6,12.8,87.4,1372.390,,
01/07/08,15:00,271.0,12.8,88.0,1372.384,,
01/07/08,15:30,271.3,12.8,87.7,1372.387,,
01/07/08,16:00,271.0,12.8,88.0,1372.384,,
01/07/08,16:30,271.0,12.8,88.0,1372.384,,
01/07/08,17:00,270.6,12.8,88.4,1372.380,,
01/07/08,17:30,269.9,12.8,89.1,1372.373,,
01/07/08,18:00,270.1,12.8,88.9,1372.375,,
01/07/08,18:30,269.6,12.8,89.4,1372.370,,
01/07/08,19:00,269.4,12.7,89.6,1372.368,,
01/07/08,19:30,269.0,12.7,90.0,1372.364,,
01/07/08,20:00,269.4,12.7,89.6,1372.368,,
01/07/08,20:30,268.8,12.8,90.2,1372.362,,
01/07/08,21:00,268.9,12.7,90.1,1372.363,,
01/07/08,21:30,268.1,12.7,90.9,1372.355,,
01/07/08,22:00,268.1,12.7,90.9,1372.355,,
01/07/08,22:30,268.1,12.7,90.9,1372.355,,
01/07/08,23:00,267.3,12.7,91.7,1372.347,,
01/07/08,23:30,268.3,12.7,90.7,1372.357,,
01/08/08,0:00,267.8,12.7,91.2,1372.352,,
01/08/08,0:30,268.0,12.7,91.0,1372.354,,
01/08/08,1:00,268.3,12.7,90.7,1372.357,,
01/08/08,1:30,267.6,12.7,91.4,1372.350,,
01/08/08,2:00,267.6,12.7,91.4,1372.350,,
01/08/08,2:30,267.7,12.7,91.3,1372.351,,
01/08/08,3:00,267.7,12.7,91.3,1372.351,,
01/08/08,3:30,267.6,12.7,91.4,1372.350,,
01/08/08,4:00,267.0,12.7,92.0,1372.344,,
01/08/08,4:30,267.2,12.7,91.8,1372.346,,
01/08/08,5:00,267.3,12.7,91.7,1372.347,,
01/08/08,5:30,267.5,12.7,91.5,1372.349,,
01/08/08,6:00,267.2,12.7,91.8,1372.346,,
01/08/08,6:30,267.6,12.7,91.4,1372.350,,
01/08/08,7:00,267.7,12.7,91.3,1372.351,,
01/08/08,7:30,267.8,12.7,91.2,1372.352,,
01/08/08,8:00,267.1,12.7,91.9,1372.345,,
01/08/08,8:30,267.6,12.7,91.4,1372.350,,
01/08/08,9:00,267.4,12.7,91.6,1372.348,,
01/08/08,9:30,267.4,12.7,91.6,1372.348,,
01/08/08,10:00,266.8,12.7,92.2,1372.342,,
01/08/08,10:30,266.7,12.7,92.3,1372.341,,
01/08/08,11:00,266.5,12.7,92.5,1372.339,,
01/08/08,11:30,267.2,12.7,91.8,1372.346,,
01/08/08,12:00,267.3,12.7,91.7,1372.347,,
01/08/08,12:30,267.8,12.7,91.2,1372.352,,
01/08/08,13:00,268.2,12.7,90.8,1372.356,,
01/08/08,13:30,268.5,12.7,90.5,1372.359,,
01/08/08,14:00,268.7,12.7,90.3,1372.361,,
01/08/08,14:30,269.4,12.7,89.6,1372.368,,
01/08/08,15:00,269.7,12.7,89.3,1372.371,,
01/08/08,15:30,269.4,12.7,89.6,1372.368,,
01/08/08,16:00,269.3,12.7,89.7,1372.367,,
01/08/08,16:30,269.9,12.7,89.1,1372.373,,
01/08/08,17:00,269.4,12.7,89.6,1372.368,,
01/08/08,17:30,269.0,12.7,90.0,1372.364,,
01/08/08,18:00,269.6,12.7,89.4,1372.370,,
01/08/08,18:30,269.8,12.7,89.2,1372.372,,
01/08/08,19:00,269.2,12.7,89.8,1372.366,,
01/08/08,19:30,269.0,12.7,90.0,1372.364,,
01/08/08,20:00,269.2,12.7,89.8,1372.366,,
01/08/08,20:30,269.0,12.7,90.0,1372.364,,
01/08/08,21:00,269.1,12.7,89.9,1372.365,,
01/08/08,21:30,269.2,12.7,89.8,1372.366,,
01/08/08,22:00,269.6,12.7,89.4,1372.370,,
01/08/08,22:30,269.6,12.7,89.4,1372.370,,
01/08/08,23:00,270.0,12.7,89.0,1372.374,,
01/08/08,23:30,269.6,12.7,89.4,1372.370,,
01/09/08,0:00,269.7,12.7,89.3,1372.371,,
01/09/08,0:30,270.1,12.7,88.9,1372.375,,
01/09/08,1:00,269.8,12.7,89.2,1372.372,,
01/09/08,1:30,270.2,12.7,88.8,1372.376,,
01/09/08,2:00,271.0,12.7,88.0,1372.384,,
01/09/08,2:30,270.5,12.7,88.5,1372.379,,
01/09/08,3:00,270.9,12.7,88.1,1372.383,,
01/09/08,3:30,270.9,12.7,88.1,1372.383,,
01/09/08,4:00,271.2,12.7,87.8,1372.386,,
01/09/08,4:30,270.3,12.7,88.7,1372.377,,
01/09/08,5:00,270.6,12.7,88.4,1372.380,,
01/09/08,5:30,270.2,12.7,88.8,1372.376,,
01/09/08,6:00,270.3,12.7,88.7,1372.377,,
01/09/08,6:30,271.0,12.7,88.0,1372.384,,
01/09/08,7:00,270.4,12.7,88.6,1372.378,,
01/09/08,7:30,269.8,12.7,89.2,1372.372,,
01/09/08,8:00,269.9,12.7,89.1,1372.373,,
01/09/08,8:30,269.9,12.7,89.1,1372.373,,
01/09/08,9:00,270.0,12.7,89.0,1372.374,,
01/09/08,9:30,271.0,12.7,88.0,1372.384,,
01/09/08,10:00,270.5,12.7,88.5,1372.379,,
01/09/08,10:30,269.6,12.7,89.4,1372.370,,
01/09/08,11:00,270.6,12.7,88.4,1372.380,,
01/09/08,11:30,270.7,12.7,88.3,1372.381,,
01/09/08,12:00,271.8,12.7,87.2,1372.392,,
01/09/08,12:30,272.2,12.7,86.8,1372.396,,
01/09/08,13:00,272.1,12.7,86.9,1372.395,,
01/09/08,13:30,272.7,12.7,86.3,1372.401,,
01/09/08,14:00,272.7,12.7,86.3,1372.401,,
01/09/08,14:30,272.9,12.7,86.1,1372.403,,
01/09/08,15:00,273.1,12.7,85.9,1372.405,,
01/09/08,15:30,272.8,12.7,86.2,1372.402,,
01/09/08,16:00,272.8,12.7,86.2,1372.402,,
01/09/08,16:30,272.8,12.7,86.2,1372.402,,
01/09/08,17:00,272.5,12.7,86.5,1372.399,,
01/09/08,17:30,272.7,12.7,86.3,1372.401,,
01/09/08,18:00,272.5,12.6,86.5,1372.399,,
01/09/08,18:30,272.3,12.7,86.7,1372.397,,
01/09/08,19:00,272.0,12.7,87.0,1372.394,,
01/09/08,19:30,271.7,12.6,87.3,1372.391,,
01/09/08,20:00,271.7,12.6,87.3,1372.391,,
01/09/08,20:30,271.5,12.6,87.5,1372.389,,
01/09/08,21:00,271.2,12.6,87.8,1372.386,,
01/09/08,21:30,270.4,12.6,88.6,1372.378,,
01/09/08,22:00,270.3,12.5,88.7,1372.377,,
01/09/08,22:30,270.0,12.5,89.0,1372.374,,
01/09/08,23:00,270.1,12.5,88.9,1372.375,,
01/09/08,23:30,270.0,12.5,89.0,1372.374,,
01/10/08,0:00,269.9,12.5,89.1,1372.373,,
01/10/08,0:30,269.9,12.5,89.1,1372.373,,
01/10/08,1:00,270.0,12.5,89.0,1372.374,,
01/10/08,1:30,269.8,12.5,89.2,1372.372,,
01/10/08,2:00,269.5,12.5,89.5,1372.369,,
01/10/08,2:30,269.6,12.5,89.4,1372.370,,
01/10/08,3:00,269.7,12.5,89.3,1372.371,,
01/10/08,3:30,269.9,12.5,89.1,1372.373,,
01/10/08,4:00,269.7,12.5,89.3,1372.371,,
01/10/08,4:30,270.1,12.5,88.9,1372.375,,
01/10/08,5:00,269.8,12.5,89.2,1372.372,,
01/10/08,5:30,269.9,12.5,89.1,1372.373,,
01/10/08,6:00,269.6,12.5,89.4,1372.370,,
01/10/08,6:30,269.9,12.5,89.1,1372.373,,
01/10/08,7:00,270.4,12.4,88.6,1372.378,,
01/10/08,7:30,269.8,12.5,89.2,1372.372,,
01/10/08,8:00,270.1,12.4,88.9,1372.375,,
01/10/08,8:30,269.9,12.4,89.1,1372.373,,
01/10/08,9:00,270.3,12.4,88.7,1372.377,,
01/10/08,9:30,269.8,12.4,89.2,1372.372,,
01/10/08,10:00,270.0,12.4,89.0,1372.374,,
01/10/08,10:30,269.7,12.4,89.3,1372.371,,
01/10/08,11:00,269.8,12.4,89.2,1372.372,,
01/10/08,11:30,270.1,12.4,88.9,1372.375,,
01/10/08,12:00,270.1,12.4,88.9,1372.375,,
01/10/08,12:30,270.8,12.5,88.2,1372.382,,
01/10/08,13:00,271.1,12.5,87.9,1372.385,,
01/10/08,13:30,271.6,12.5,87.4,1372.390,,
01/10/08,14:00,271.5,12.5,87.5,1372.389,,
01/10/08,14:30,271.9,12.5,87.1,1372.393,,
01/10/08,15:00,271.9,12.5,87.1,1372.393,,
01/10/08,15:30,272.3,12.5,86.7,1372.397,,
01/10/08,16:00,271.6,12.5,87.4,1372.390,,
01/10/08,16:30,272.2,12.5,86.8,1372.396,,
01/10/08,17:00,272.3,12.5,86.7,1372.397,,
01/10/08,17:30,272.4,12.5,86.6,1372.398,,
01/10/08,18:00,272.4,12.5,86.6,1372.398,,
01/10/08,18:30,272.2,12.5,86.8,1372.396,,
01/10/08,19:00,271.4,12.5,87.6,1372.388,,
01/10/08,19:30,271.6,12.5,87.4,1372.390,,
01/10/08,20:00,271.6,12.4,87.4,1372.390,,
01/10/08,20:30,271.0,12.4,88.0,1372.384,,
01/10/08,21:00,271.0,12.4,88.0,1372.384,,
01/10/08,21:30,271.0,12.4,88.0,1372.384,,
01/10/08,22:00,271.1,12.4,87.9,1372.385,,
01/10/08,22:30,270.7,12.4,88.3,1372.381,,
01/10/08,23:00,271.1,12.4,87.9,1372.385,,
01/10/08,23:30,271.4,12.4,87.6,1372.388,,
01/11/08,0:00,271.9,12.4,87.1,1372.393,,
01/11/08,0:30,271.6,12.4,87.4,1372.390,,
01/11/08,1:00,271.6,12.4,87.4,1372.390,,
01/11/08,1:30,271.3,12.4,87.7,1372.387,,
01/11/08,2:00,271.5,12.4,87.5,1372.389,,
01/11/08,2:30,271.9,12.4,87.1,1372.393,,
01/11/08,3:00,271.8,12.4,87.2,1372.392,,
01/11/08,3:30,271.5,12.4,87.5,1372.389,,
01/11/08,4:00,271.1,12.4,87.9,1372.385,,
01/11/08,4:30,271.7,12.4,87.3,1372.391,,
01/11/08,5:00,271.8,12.4,87.2,1372.392,,
01/11/08,5:30,272.4,12.4,86.6,1372.398,,
01/11/08,6:00,272.1,12.4,86.9,1372.395,,
01/11/08,6:30,272.1,12.4,86.9,1372.395,,
01/11/08,7:00,272.2,12.3,86.8,1372.396,,
01/11/08,7:30,271.3,12.3,87.7,1372.387,,
01/11/08,8:00,270.6,12.4,88.4,1372.380,,
01/11/08,8:30,270.5,12.4,88.5,1372.379,,
01/11/08,9:00,270.9,12.4,88.1,1372.383,,
01/11/08,9:30,270.7,12.4,88.3,1372.381,,
01/11/08,10:00,271.1,12.4,87.9,1372.385,,
01/11/08,10:30,270.0,12.4,89.0,1372.374,,
01/11/08,11:00,270.7,12.3,88.3,1372.381,,
01/11/08,11:30,271.2,12.4,87.8,1372.386,,
01/11/08,12:00,272.1,12.4,86.9,1372.395,,
01/11/08,12:30,272.6,12.3,86.4,1372.400,,
01/11/08,13:00,272.7,12.4,86.3,1372.401,,
01/11/08,13:30,272.7,12.4,86.3,1372.401,,
01/11/08,14:00,273.0,12.3,86.0,1372.404,,
01/11/08,14:30,273.7,12.3,85.3,1372.411,,
01/11/08,15:00,273.2,12.4,85.8,1372.406,,
01/11/08,15:30,273.0,12.4,86.0,1372.404,,
01/11/08,16:00,273.6,12.3,85.4,1372.410,,
01/11/08,16:30,274.0,12.3,85.0,1372.414,,
01/11/08,17:00,273.2,12.3,85.8,1372.406,,
01/11/08,17:30,272.8,12.3,86.2,1372.402,,
01/11/08,18:00,273.1,12.2,85.9,1372.405,,
01/11/08,18:30,273.3,12.3,85.7,1372.407,,
01/11/08,19:00,272.9,12.3,86.1,1372.403,,
01/11/08,19:30,272.0,12.3,87.0,1372.394,,
01/11/08,20:00,272.0,12.4,87.0,1372.394,,
01/11/08,20:30,272.4,12.3,86.6,1372.398,,
01/11/08,21:00,271.7,12.3,87.3,1372.391,,
01/11/08,21:30,272.1,12.3,86.9,1372.395,,
01/11/08,22:00,271.8,12.3,87.2,1372.392,,
01/11/08,22:30,271.4,12.3,87.6,1372.388,,
01/11/08,23:00,271.7,12.3,87.3,1372.391,,
01/11/08,23:30,271.3,12.3,87.7,1372.387,,
01/12/08,0:00,271.4,12.3,87.6,1372.388,,
01/12/08,0:30,271.0,12.3,88.0,1372.384,,
01/12/08,1:00,271.1,12.3,87.9,1372.385,,
01/12/08,1:30,270.7,12.3,88.3,1372.381,,
01/12/08,2:00,270.9,12.3,88.1,1372.383,,
01/12/08,2:30,271.1,12.3,87.9,1372.385,,
01/12/08,3:00,271.0,12.3,88.0,1372.384,,
01/12/08,3:30,270.6,12.3,88.4,1372.380,,
01/12/08,4:00,270.6,12.3,88.4,1372.380,,
01/12/08,4:30,270.9,12.3,88.1,1372.383,,
01/12/08,5:00,270.8,12.3,88.2,1372.382,,
01/12/08,5:30,270.4,12.3,88.6,1372.378,,
01/12/08,6:00,270.4,12.3,88.6,1372.378,,
01/12/08,6:30,270.0,12.3,89.0,1372.374,,
01/12/08,7:00,270.1,12.3,88.9,1372.375,,
01/12/08,7:30,269.7,12.3,89.3,1372.371,,
01/12/08,8:00,269.8,12.3,89.2,1372.372,,
01/12/08,8:30,269.6,12.3,89.4,1372.370,,
01/12/08,9:00,269.9,12.3,89.1,1372.373,,
01/12/08,9:30,269.6,12.3,89.4,1372.370,,
01/12/08,10:00,269.2,12.3,89.8,1372.366,,
01/12/08,10:30,269.2,12.3,89.8,1372.366,,
01/12/08,11:00,270.3,12.3,88.7,1372.377,,
01/12/08,11:30,270.5,12.3,88.5,1372.379,,